Location: Fort Wayne
(41.1310°N, 85.1290°W)
Time: 22:04:37
(UTC-04:00)

COSMOS 2406 - Visible Passes

Search period start: 30 March 2015 00:00
Search period end: 09 April 2015 00:00
Orbit: 843 x 866 km, 71.0° (Epoch: 30 March)

Date Brightness Start Highest point End Pass type
(mag) Time Alt. Az. Time Alt. Az. Time Alt. Az.
30 Mar 5.4 00:06:30 10° N 00:08:25 20° N 00:08:25 20° N visible
30 Mar 5.2 23:55:19 10° N 23:57:32 22° N 23:57:32 22° N visible
31 Mar 5.1 23:44:07 10° N 23:46:41 24° N 23:46:41 24° N visible
01 Apr 6.0 01:28:37 10° NW 01:28:46 11° NW 01:28:46 11° NW visible
01 Apr 4.9 23:32:56 10° N 23:35:51 26° NNE 23:35:51 26° NNE visible
02 Apr 5.9 01:17:27 10° NW 01:17:56 12° NW 01:17:56 12° NW visible
02 Apr 4.7 23:21:45 10° N 23:25:02 29° NNE 23:25:02 29° NNE visible
03 Apr 5.8 01:06:18 10° NW 01:07:07 14° NW 01:07:07 14° NW visible
03 Apr 4.5 23:10:33 10° N 23:14:14 32° NNE 23:14:14 32° NNE visible
04 Apr 5.7 00:55:09 10° NW 00:56:20 15° NW 00:56:20 15° NW visible
04 Apr 4.3 22:59:22 10° N 23:03:28 35° NNE 23:03:28 35° NNE visible
05 Apr 5.6 00:43:59 10° NW 00:45:34 17° NW 00:45:34 17° NW visible
05 Apr 4.1 22:48:11 10° N 22:52:44 38° NE 22:52:44 38° NE visible
06 Apr 5.4 00:32:50 10° NW 00:34:50 19° WNW 00:34:50 19° WNW visible
06 Apr 3.9 22:36:59 10° N 22:42:02 40° NE 22:42:02 40° NE visible
07 Apr 5.3 00:21:41 10° NW 00:24:08 21° WNW 00:24:08 21° WNW visible
07 Apr 3.8 22:25:48 10° N 22:31:13 42° ENE 22:31:22 42° ENE visible
08 Apr 5.1 00:10:32 10° NW 00:13:27 23° WNW 00:13:27 23° WNW visible
08 Apr 3.7 22:14:37 10° NNW 22:20:03 42° ENE 22:20:43 41° ENE visible
